Year,Month,Day,Hour,Minute,Value (Times are PST for windgust in km/hr)
2023,01,05,00,00,16.10
2023,01,05,00,01,14.50
2023,01,05,00,02,16.10
2023,01,05,00,03,16.10
2023,01,05,00,04,14.50
2023,01,05,00,05,16.10
2023,01,05,00,06,16.10
2023,01,05,00,07,16.10
2023,01,05,00,08,11.30
2023,01,05,00,09,12.90
2023,01,05,00,10,8.10
2023,01,05,00,11,9.60
2023,01,05,00,12,11.30
2023,01,05,00,13,11.30
2023,01,05,00,14,11.30
2023,01,05,00,15,14.50
2023,01,05,00,16,8.10
2023,01,05,00,17,9.60
2023,01,05,00,18,11.30
2023,01,05,00,19,14.50
2023,01,05,00,20,11.30
2023,01,05,00,21,11.30
2023,01,05,00,22,14.50
2023,01,05,00,23,17.70
2023,01,05,00,24,16.10
2023,01,05,00,25,14.50
2023,01,05,00,26,16.10
2023,01,05,00,27,16.10
2023,01,05,00,28,14.50
2023,01,05,00,29,14.50
2023,01,05,00,30,12.90
2023,01,05,00,31,12.90
2023,01,05,00,32,14.50
2023,01,05,00,33,11.30
2023,01,05,00,34,12.90
2023,01,05,00,35,9.60
2023,01,05,00,36,14.50
2023,01,05,00,37,14.50
2023,01,05,00,38,12.90
2023,01,05,00,39,12.90
2023,01,05,00,40,14.50
2023,01,05,00,41,14.50
2023,01,05,00,42,14.50
2023,01,05,00,43,12.90
2023,01,05,00,44,12.90
2023,01,05,00,45,12.90
2023,01,05,00,46,11.30
2023,01,05,00,47,12.90
2023,01,05,00,48,9.60
2023,01,05,00,49,12.90
2023,01,05,00,50,8.10
2023,01,05,00,51,6.40
2023,01,05,00,52,6.40
2023,01,05,00,53,6.40
2023,01,05,00,54,6.40
2023,01,05,00,55,6.40
2023,01,05,00,56,4.80
2023,01,05,00,57,6.40
2023,01,05,00,58,4.80
2023,01,05,00,59,6.40
2023,01,05,01,00,4.80
2023,01,05,01,01,6.40
2023,01,05,01,02,6.40
2023,01,05,01,03,6.40
2023,01,05,01,04,6.40
2023,01,05,01,05,6.40
2023,01,05,01,06,14.50
2023,01,05,01,07,12.90
2023,01,05,01,08,11.30
2023,01,05,01,09,9.60
2023,01,05,01,10,9.60
2023,01,05,01,11,14.50
2023,01,05,01,12,12.90
2023,01,05,01,13,11.30
2023,01,05,01,14,12.90
2023,01,05,01,15,9.60
2023,01,05,01,16,11.30
2023,01,05,01,17,11.30
2023,01,05,01,18,9.60
2023,01,05,01,19,11.30
2023,01,05,01,20,12.90
2023,01,05,01,21,12.90
2023,01,05,01,22,14.50
2023,01,05,01,23,12.90
2023,01,05,01,24,12.90
2023,01,05,01,25,14.50
2023,01,05,01,26,17.70
2023,01,05,01,27,11.30
2023,01,05,01,28,16.10
2023,01,05,01,29,16.10
2023,01,05,01,30,14.50
2023,01,05,01,31,12.90
2023,01,05,01,32,8.10
2023,01,05,01,33,6.40
2023,01,05,01,34,19.30
2023,01,05,01,35,19.30
2023,01,05,01,36,14.50
2023,01,05,01,37,16.10
2023,01,05,01,38,16.10
2023,01,05,01,39,12.90
2023,01,05,01,40,19.30
2023,01,05,01,41,17.70
2023,01,05,01,42,16.10
2023,01,05,01,43,17.70
2023,01,05,01,44,16.10
2023,01,05,01,45,14.50
2023,01,05,01,46,16.10
2023,01,05,01,47,17.70
2023,01,05,01,48,12.90
2023,01,05,01,49,19.30
2023,01,05,01,50,20.90
2023,01,05,01,51,19.30
2023,01,05,01,52,17.70
2023,01,05,01,53,17.70
2023,01,05,01,54,20.90
2023,01,05,01,55,19.30
2023,01,05,01,56,17.70
2023,01,05,01,57,16.10
2023,01,05,01,58,14.50
2023,01,05,01,59,16.10
2023,01,05,02,00,17.70
2023,01,05,02,01,14.50
2023,01,05,02,02,16.10
2023,01,05,02,03,14.50
2023,01,05,02,04,12.90
2023,01,05,02,05,9.60
2023,01,05,02,06,8.10
2023,01,05,02,07,8.10
2023,01,05,02,08,6.40
2023,01,05,02,09,11.30
2023,01,05,02,10,11.30
2023,01,05,02,11,6.40
2023,01,05,02,12,4.80
2023,01,05,02,13,4.80
2023,01,05,02,14,4.80
2023,01,05,02,15,6.40
2023,01,05,02,16,6.40
2023,01,05,02,17,9.60
2023,01,05,02,18,6.40
2023,01,05,02,19,6.40
2023,01,05,02,20,11.30
2023,01,05,02,21,6.40
2023,01,05,02,22,6.40
2023,01,05,02,23,11.30
2023,01,05,02,24,11.30
2023,01,05,02,25,6.40
2023,01,05,02,26,6.40
2023,01,05,02,27,6.40
2023,01,05,02,28,4.80
2023,01,05,02,29,4.80
2023,01,05,02,30,4.80
2023,01,05,02,31,4.80
2023,01,05,02,32,8.10
2023,01,05,02,33,8.10
2023,01,05,02,34,6.40
2023,01,05,02,35,6.40
2023,01,05,02,36,8.10
2023,01,05,02,37,6.40
2023,01,05,02,38,6.40
2023,01,05,02,39,6.40
2023,01,05,02,40,8.10
2023,01,05,02,41,8.10
2023,01,05,02,42,8.10
2023,01,05,02,43,9.60
2023,01,05,02,44,12.90
2023,01,05,02,45,8.10
2023,01,05,02,46,8.10
2023,01,05,02,47,9.60
2023,01,05,02,48,8.10
2023,01,05,02,49,8.10
2023,01,05,02,50,12.90
2023,01,05,02,51,9.60
2023,01,05,02,52,8.10
2023,01,05,02,53,8.10
2023,01,05,02,54,9.60
2023,01,05,02,55,11.30
2023,01,05,02,56,11.30
2023,01,05,02,57,14.50
2023,01,05,02,58,14.50
2023,01,05,02,59,14.50
2023,01,05,03,00,11.30
2023,01,05,03,01,11.30
2023,01,05,03,02,11.30
2023,01,05,03,03,14.50
2023,01,05,03,04,14.50
2023,01,05,03,05,11.30
2023,01,05,03,06,11.30
2023,01,05,03,07,11.30
2023,01,05,03,08,12.90
2023,01,05,03,09,14.50
2023,01,05,03,10,11.30
2023,01,05,03,11,14.50
2023,01,05,03,12,14.50
2023,01,05,03,13,14.50
2023,01,05,03,14,14.50
2023,01,05,03,15,11.30
2023,01,05,03,16,12.90
2023,01,05,03,17,14.50
2023,01,05,03,18,14.50
2023,01,05,03,19,11.30
2023,01,05,03,20,14.50
2023,01,05,03,21,14.50
2023,01,05,03,22,11.30
2023,01,05,03,23,14.50
2023,01,05,03,24,11.30
2023,01,05,03,25,14.50
2023,01,05,03,26,14.50
2023,01,05,03,27,14.50
2023,01,05,03,28,14.50
2023,01,05,03,29,14.50
2023,01,05,03,30,11.30
2023,01,05,03,31,14.50
2023,01,05,03,32,11.30
2023,01,05,03,33,11.30
2023,01,05,03,34,9.60
2023,01,05,03,35,12.90
2023,01,05,03,36,14.50
2023,01,05,03,37,14.50
2023,01,05,03,38,9.60
2023,01,05,03,39,12.90
2023,01,05,03,40,14.50
2023,01,05,03,41,14.50
2023,01,05,03,42,16.10
2023,01,05,03,43,14.50
2023,01,05,03,44,14.50
2023,01,05,03,45,16.10
2023,01,05,03,46,16.10
2023,01,05,03,47,17.70
2023,01,05,03,48,17.70
2023,01,05,03,49,19.30
2023,01,05,03,50,17.70
2023,01,05,03,51,17.70
2023,01,05,03,52,16.10
2023,01,05,03,53,16.10
2023,01,05,03,54,14.50
2023,01,05,03,55,16.10
2023,01,05,03,56,16.10
2023,01,05,03,57,14.50
2023,01,05,03,58,16.10
2023,01,05,03,59,16.10
2023,01,05,04,00,14.50
2023,01,05,04,01,16.10
2023,01,05,04,02,12.90
2023,01,05,04,03,16.10
2023,01,05,04,04,16.10
2023,01,05,04,05,16.10
2023,01,05,04,06,14.50
2023,01,05,04,07,8.10
2023,01,05,04,08,12.90
2023,01,05,04,09,11.30
2023,01,05,04,10,9.60
2023,01,05,04,11,8.10
2023,01,05,04,12,11.30
2023,01,05,04,13,14.50
2023,01,05,04,14,14.50
2023,01,05,04,15,14.50
2023,01,05,04,16,16.10
2023,01,05,04,17,17.70
2023,01,05,04,18,17.70
2023,01,05,04,19,14.50
2023,01,05,04,20,16.10
2023,01,05,04,21,17.70
2023,01,05,04,22,17.70
2023,01,05,04,23,19.30
2023,01,05,04,24,19.30
2023,01,05,04,25,20.90
2023,01,05,04,26,20.90
2023,01,05,04,27,20.90
2023,01,05,04,28,19.30
2023,01,05,04,29,19.30
2023,01,05,04,30,20.90
2023,01,05,04,31,19.30
2023,01,05,04,32,19.30
2023,01,05,04,33,19.30
2023,01,05,04,34,19.30
2023,01,05,04,35,17.70
2023,01,05,04,36,17.70
2023,01,05,04,37,17.70
2023,01,05,04,38,17.70
2023,01,05,04,39,16.10
2023,01,05,04,40,20.90
2023,01,05,04,41,20.90
2023,01,05,04,42,22.50
2023,01,05,04,43,24.20
2023,01,05,04,44,24.20
2023,01,05,04,45,20.90
2023,01,05,04,46,19.30
2023,01,05,04,47,20.90
2023,01,05,04,48,19.30
2023,01,05,04,49,20.90
2023,01,05,04,50,19.30
2023,01,05,04,51,20.90
2023,01,05,04,52,20.90
2023,01,05,04,53,22.50
2023,01,05,04,54,20.90
2023,01,05,04,55,22.50
2023,01,05,04,56,24.20
2023,01,05,04,57,24.20
2023,01,05,04,58,24.20
2023,01,05,04,59,22.50
2023,01,05,05,00,19.30
2023,01,05,05,01,25.70
2023,01,05,05,02,24.20
2023,01,05,05,03,24.20
2023,01,05,05,04,24.20
2023,01,05,05,05,20.90
2023,01,05,05,06,22.50
2023,01,05,05,07,22.50
2023,01,05,05,08,22.50
2023,01,05,05,09,22.50
2023,01,05,05,10,22.50
2023,01,05,05,11,22.50
2023,01,05,05,12,24.20
2023,01,05,05,13,25.70
2023,01,05,05,14,24.20
2023,01,05,05,15,24.20
2023,01,05,05,16,25.70
2023,01,05,05,17,20.90
2023,01,05,05,18,20.90
2023,01,05,05,19,20.90
2023,01,05,05,20,22.50
2023,01,05,05,21,20.90
2023,01,05,05,22,19.30
2023,01,05,05,23,24.20
2023,01,05,05,24,20.90
2023,01,05,05,25,19.30
2023,01,05,05,26,22.50
2023,01,05,05,27,20.90
2023,01,05,05,28,19.30
2023,01,05,05,29,19.30
2023,01,05,05,30,19.30
2023,01,05,05,31,20.90
2023,01,05,05,32,19.30
2023,01,05,05,33,19.30
2023,01,05,05,34,19.30
2023,01,05,05,35,20.90
2023,01,05,05,36,20.90
2023,01,05,05,37,20.90
2023,01,05,05,38,22.50
2023,01,05,05,39,19.30
2023,01,05,05,40,19.30
2023,01,05,05,41,19.30
2023,01,05,05,42,20.90
2023,01,05,05,43,20.90
2023,01,05,05,44,17.70
2023,01,05,05,45,19.30
2023,01,05,05,46,19.30
2023,01,05,05,47,20.90
2023,01,05,05,48,20.90
2023,01,05,05,49,19.30
2023,01,05,05,50,22.50
2023,01,05,05,51,19.30
2023,01,05,05,52,20.90
2023,01,05,05,53,20.90
2023,01,05,05,54,20.90
2023,01,05,05,55,20.90
2023,01,05,05,56,19.30
2023,01,05,05,57,19.30
2023,01,05,05,58,20.90
2023,01,05,05,59,19.30
2023,01,05,06,00,22.50
2023,01,05,06,01,20.90
2023,01,05,06,02,22.50
2023,01,05,06,03,24.20
2023,01,05,06,04,20.90
2023,01,05,06,05,22.50
2023,01,05,06,06,24.20
2023,01,05,06,07,24.20
2023,01,05,06,08,24.20
2023,01,05,06,09,25.70
2023,01,05,06,10,22.50
2023,01,05,06,11,22.50
2023,01,05,06,12,20.90
2023,01,05,06,13,25.70
2023,01,05,06,14,22.50
2023,01,05,06,15,25.70
2023,01,05,06,16,24.20
2023,01,05,06,17,24.20
2023,01,05,06,18,24.20
2023,01,05,06,19,24.20
2023,01,05,06,20,25.70
2023,01,05,06,21,29.00
2023,01,05,06,22,24.20
2023,01,05,06,23,27.40
2023,01,05,06,24,24.20
2023,01,05,06,25,27.40
2023,01,05,06,26,24.20
2023,01,05,06,27,24.20
2023,01,05,06,28,22.50
2023,01,05,06,29,22.50
2023,01,05,06,30,22.50
2023,01,05,06,31,24.20
2023,01,05,06,32,24.20
2023,01,05,06,33,25.70
2023,01,05,06,34,22.50
2023,01,05,06,35,20.90
2023,01,05,06,36,22.50
2023,01,05,06,37,22.50
2023,01,05,06,38,22.50
2023,01,05,06,39,22.50
2023,01,05,06,40,22.50
2023,01,05,06,41,20.90
2023,01,05,06,42,20.90
2023,01,05,06,43,22.50
2023,01,05,06,44,22.50
2023,01,05,06,45,22.50
2023,01,05,06,46,24.20
2023,01,05,06,47,22.50
2023,01,05,06,48,24.20
2023,01,05,06,49,27.40
2023,01,05,06,50,24.20
2023,01,05,06,51,22.50
2023,01,05,06,52,20.90
2023,01,05,06,53,22.50
2023,01,05,06,54,22.50
2023,01,05,06,55,20.90
2023,01,05,06,56,19.30
2023,01,05,06,57,24.20
2023,01,05,06,58,25.70
2023,01,05,06,59,25.70
2023,01,05,07,00,22.50
2023,01,05,07,01,22.50
2023,01,05,07,02,22.50
2023,01,05,07,03,24.20
2023,01,05,07,04,27.40
2023,01,05,07,05,24.20
2023,01,05,07,06,22.50
2023,01,05,07,07,20.90
2023,01,05,07,08,24.20
2023,01,05,07,09,24.20
2023,01,05,07,10,22.50
2023,01,05,07,11,20.90
2023,01,05,07,12,20.90
2023,01,05,07,13,19.30
2023,01,05,07,14,19.30
2023,01,05,07,15,24.20
2023,01,05,07,16,24.20
2023,01,05,07,17,25.70
2023,01,05,07,18,22.50
2023,01,05,07,19,22.50
2023,01,05,07,20,24.20
2023,01,05,07,21,22.50
2023,01,05,07,22,22.50
2023,01,05,07,23,20.90
2023,01,05,07,24,20.90
2023,01,05,07,25,17.70
2023,01,05,07,26,16.10
2023,01,05,07,27,16.10
2023,01,05,07,28,19.30
2023,01,05,07,29,19.30
2023,01,05,07,30,17.70
2023,01,05,07,31,17.70
2023,01,05,07,32,20.90
2023,01,05,07,33,22.50
2023,01,05,07,34,22.50
2023,01,05,07,35,24.20
2023,01,05,07,36,22.50
2023,01,05,07,37,20.90
2023,01,05,07,38,20.90
2023,01,05,07,39,19.30
2023,01,05,07,40,16.10
2023,01,05,07,41,14.50
2023,01,05,07,42,17.70
2023,01,05,07,43,14.50
2023,01,05,07,44,11.30
2023,01,05,07,45,14.50
2023,01,05,07,46,14.50
2023,01,05,07,47,14.50
2023,01,05,07,48,12.90
2023,01,05,07,49,14.50
2023,01,05,07,50,12.90
2023,01,05,07,51,12.90
2023,01,05,07,52,12.90
2023,01,05,07,53,12.90
2023,01,05,07,54,14.50
2023,01,05,07,55,16.10
2023,01,05,07,56,14.50
2023,01,05,07,57,12.90
2023,01,05,07,58,14.50
2023,01,05,07,59,14.50
2023,01,05,08,00,16.10
2023,01,05,08,01,14.50
2023,01,05,08,02,12.90
2023,01,05,08,03,11.30
2023,01,05,08,04,8.10
2023,01,05,08,05,8.10
2023,01,05,08,06,11.30
2023,01,05,08,07,8.10
2023,01,05,08,08,11.30
2023,01,05,08,09,11.30
2023,01,05,08,10,12.90
2023,01,05,08,11,11.30
2023,01,05,08,12,12.90
2023,01,05,08,13,14.50
2023,01,05,08,14,11.30
2023,01,05,08,15,14.50
2023,01,05,08,16,14.50
2023,01,05,08,17,12.90
2023,01,05,08,18,14.50
2023,01,05,08,19,14.50
2023,01,05,08,20,12.90
2023,01,05,08,21,9.60
2023,01,05,08,22,8.10
2023,01,05,08,23,9.60
2023,01,05,08,24,11.30
2023,01,05,08,25,12.90
2023,01,05,08,26,12.90
2023,01,05,08,27,9.60
2023,01,05,08,28,12.90
2023,01,05,08,29,12.90
2023,01,05,08,30,8.10
2023,01,05,08,31,12.90
2023,01,05,08,32,12.90
2023,01,05,08,33,12.90
2023,01,05,08,34,9.60
2023,01,05,08,35,9.60
2023,01,05,08,36,6.40
2023,01,05,08,37,9.60
2023,01,05,08,38,12.90
2023,01,05,08,39,14.50
2023,01,05,08,40,14.50
2023,01,05,08,41,14.50
2023,01,05,08,42,14.50
2023,01,05,08,43,14.50
2023,01,05,08,44,8.10
2023,01,05,08,45,8.10
2023,01,05,08,46,9.60
2023,01,05,08,47,9.60
2023,01,05,08,48,8.10
2023,01,05,08,49,6.40
2023,01,05,08,50,8.10
2023,01,05,08,51,8.10
2023,01,05,08,52,6.40
2023,01,05,08,53,8.10
2023,01,05,08,54,6.40
2023,01,05,08,55,6.40
2023,01,05,08,56,8.10
2023,01,05,08,57,8.10
2023,01,05,08,58,12.90
2023,01,05,08,59,9.60
2023,01,05,09,00,11.30
2023,01,05,09,01,11.30
2023,01,05,09,02,17.70
2023,01,05,09,03,14.50
2023,01,05,09,04,14.50
2023,01,05,09,05,12.90
2023,01,05,09,06,6.40
2023,01,05,09,07,6.40
2023,01,05,09,08,4.80
2023,01,05,09,09,8.10
2023,01,05,09,10,9.60
2023,01,05,09,11,8.10
2023,01,05,09,12,9.60
2023,01,05,09,13,12.90
2023,01,05,09,14,12.90
2023,01,05,09,15,17.70
2023,01,05,09,16,14.50
2023,01,05,09,17,12.90
2023,01,05,09,18,9.60
2023,01,05,09,19,9.60
2023,01,05,09,20,8.10
2023,01,05,09,21,9.60
2023,01,05,09,22,9.60
2023,01,05,09,23,9.60
2023,01,05,09,24,8.10
2023,01,05,09,25,8.10
2023,01,05,09,26,3.20
2023,01,05,09,27,4.80
2023,01,05,09,28,6.40
2023,01,05,09,29,4.80
2023,01,05,09,30,3.20
2023,01,05,09,31,1.60
2023,01,05,09,32,3.20
2023,01,05,09,33,4.80
2023,01,05,09,34,3.20
2023,01,05,09,35,1.60
2023,01,05,09,36,4.80
2023,01,05,09,37,3.20
2023,01,05,09,38,3.20
2023,01,05,09,39,4.80
2023,01,05,09,40,4.80
2023,01,05,09,41,3.20
2023,01,05,09,42,1.60
2023,01,05,09,46,4.80
2023,01,05,09,47,6.40
2023,01,05,09,48,6.40
2023,01,05,09,49,4.80
2023,01,05,09,50,6.40
2023,01,05,09,51,4.80
2023,01,05,09,52,4.80
2023,01,05,09,53,3.20
2023,01,05,09,54,4.80
2023,01,05,09,55,3.20
2023,01,05,09,57,1.60
2023,01,05,10,04,1.60
2023,01,05,10,07,1.60
2023,01,05,10,08,3.20
2023,01,05,10,09,4.80
2023,01,05,10,10,4.80
2023,01,05,10,11,3.20
2023,01,05,10,12,3.20
2023,01,05,10,13,1.60
2023,01,05,10,14,3.20
2023,01,05,10,15,3.20
2023,01,05,10,16,3.20
2023,01,05,10,17,1.60
2023,01,05,10,19,1.60
2023,01,05,10,20,3.20
2023,01,05,10,21,3.20
2023,01,05,10,22,3.20
2023,01,05,10,23,1.60
2023,01,05,10,24,1.60
2023,01,05,10,25,1.60
2023,01,05,10,26,3.20
2023,01,05,10,28,1.60
2023,01,05,10,29,4.80
2023,01,05,10,30,4.80
2023,01,05,10,31,4.80
2023,01,05,10,32,8.10
2023,01,05,10,33,8.10
2023,01,05,10,34,6.40
2023,01,05,10,35,4.80
2023,01,05,10,36,3.20
2023,01,05,10,37,1.60
2023,01,05,10,40,1.60
2023,01,05,10,41,1.60
2023,01,05,10,42,1.60
2023,01,05,10,48,1.60
2023,01,05,10,53,1.60
2023,01,05,10,56,1.60
2023,01,05,10,57,3.20
2023,01,05,10,58,4.80
2023,01,05,10,59,3.20
2023,01,05,11,00,4.80
2023,01,05,11,01,4.80
2023,01,05,11,02,6.40
2023,01,05,11,03,6.40
2023,01,05,11,04,4.80
2023,01,05,11,05,4.80
2023,01,05,11,06,6.40
2023,01,05,11,07,14.50
2023,01,05,11,08,9.60
2023,01,05,11,09,6.40
2023,01,05,11,10,11.30
2023,01,05,11,11,8.10
2023,01,05,11,12,3.20
2023,01,05,11,13,3.20
2023,01,05,11,14,3.20
2023,01,05,11,15,6.40
2023,01,05,11,16,4.80
2023,01,05,11,17,4.80
2023,01,05,11,18,4.80
2023,01,05,11,19,4.80
2023,01,05,11,20,3.20
2023,01,05,11,21,3.20
2023,01,05,11,22,3.20
2023,01,05,11,23,6.40
2023,01,05,11,24,8.10
2023,01,05,11,25,4.80
2023,01,05,11,26,8.10
2023,01,05,11,27,12.90
2023,01,05,11,28,12.90
2023,01,05,11,29,8.10
2023,01,05,11,30,8.10
2023,01,05,11,31,4.80
2023,01,05,11,32,4.80
2023,01,05,11,33,3.20
2023,01,05,11,34,1.60
2023,01,05,11,35,3.20
2023,01,05,11,36,1.60
2023,01,05,11,37,3.20
2023,01,05,11,38,3.20
2023,01,05,11,39,3.20
2023,01,05,11,40,1.60
2023,01,05,11,41,4.80
2023,01,05,11,42,6.40
2023,01,05,11,43,6.40
2023,01,05,11,44,3.20
2023,01,05,11,45,6.40
2023,01,05,11,46,4.80
2023,01,05,11,47,4.80
2023,01,05,11,48,6.40
2023,01,05,11,49,4.80
2023,01,05,11,50,4.80
2023,01,05,11,51,6.40
2023,01,05,11,52,9.60
2023,01,05,11,53,9.60
2023,01,05,11,54,9.60
2023,01,05,11,55,11.30
2023,01,05,11,56,8.10
2023,01,05,11,57,12.90
2023,01,05,11,58,9.60
2023,01,05,11,59,11.30
2023,01,05,12,00,11.30
2023,01,05,12,01,8.10
2023,01,05,12,02,4.80
2023,01,05,12,03,4.80
2023,01,05,12,04,3.20
2023,01,05,12,05,4.80
2023,01,05,12,06,4.80
2023,01,05,12,07,3.20
2023,01,05,12,08,1.60
2023,01,05,12,09,4.80
2023,01,05,12,10,1.60
2023,01,05,12,11,1.60
2023,01,05,12,12,1.60
2023,01,05,12,13,1.60
2023,01,05,12,16,1.60
2023,01,05,12,17,1.60
2023,01,05,12,18,1.60
2023,01,05,12,19,1.60
2023,01,05,12,20,1.60
2023,01,05,12,21,3.20
2023,01,05,12,22,3.20
2023,01,05,12,23,1.60
2023,01,05,12,25,1.60
2023,01,05,12,26,1.60
2023,01,05,12,27,1.60
2023,01,05,12,30,3.20
2023,01,05,12,31,3.20
2023,01,05,12,32,3.20
2023,01,05,12,34,4.80
2023,01,05,12,35,4.80
2023,01,05,12,36,4.80
2023,01,05,12,37,8.10
2023,01,05,12,38,8.10
2023,01,05,12,39,6.40
2023,01,05,12,40,6.40
2023,01,05,12,41,4.80
2023,01,05,12,42,4.80
2023,01,05,12,43,3.20
2023,01,05,12,44,1.60
2023,01,05,12,46,1.60
2023,01,05,12,47,3.20
2023,01,05,12,48,3.20
2023,01,05,12,49,3.20
2023,01,05,12,50,3.20
2023,01,05,12,51,1.60
2023,01,05,12,52,3.20
2023,01,05,12,53,6.40
2023,01,05,12,54,8.10
2023,01,05,12,55,12.90
2023,01,05,12,56,12.90
2023,01,05,12,57,3.20
2023,01,05,13,01,6.40
2023,01,05,13,02,4.80
2023,01,05,13,03,3.20
2023,01,05,13,04,4.80
2023,01,05,13,05,1.60
2023,01,05,13,06,1.60
2023,01,05,13,07,3.20
2023,01,05,13,08,1.60
2023,01,05,13,09,3.20
2023,01,05,13,10,4.80
2023,01,05,13,11,3.20
2023,01,05,13,12,4.80
2023,01,05,13,13,3.20
2023,01,05,13,19,4.80
2023,01,05,13,20,4.80
2023,01,05,13,21,6.40
2023,01,05,13,22,3.20
2023,01,05,13,23,1.60
2023,01,05,13,24,3.20
2023,01,05,13,25,1.60
2023,01,05,13,26,1.60
2023,01,05,13,27,1.60
2023,01,05,13,29,3.20
2023,01,05,13,30,3.20
2023,01,05,13,31,4.80
2023,01,05,13,32,3.20
2023,01,05,13,33,1.60
2023,01,05,13,34,3.20
2023,01,05,13,35,4.80
2023,01,05,13,36,1.60
2023,01,05,13,37,4.80
2023,01,05,13,38,3.20
2023,01,05,13,39,1.60
2023,01,05,13,40,1.60
2023,01,05,13,41,3.20
2023,01,05,13,42,6.40
2023,01,05,13,43,6.40
2023,01,05,13,44,6.40
2023,01,05,13,45,8.10
2023,01,05,13,46,8.10
2023,01,05,13,47,6.40
2023,01,05,13,48,9.60
2023,01,05,13,49,8.10
2023,01,05,13,50,8.10
2023,01,05,13,51,8.10
2023,01,05,13,52,4.80
2023,01,05,13,53,4.80
2023,01,05,13,54,6.40
2023,01,05,13,55,4.80
2023,01,05,13,56,4.80
2023,01,05,13,57,4.80
2023,01,05,13,58,1.60
2023,01,05,13,59,3.20
2023,01,05,14,00,1.60
2023,01,05,14,01,3.20
2023,01,05,14,02,3.20
2023,01,05,14,03,1.60
2023,01,05,14,04,1.60
2023,01,05,14,05,3.20
2023,01,05,14,06,3.20
2023,01,05,14,07,4.80
2023,01,05,14,08,3.20
2023,01,05,14,09,3.20
2023,01,05,14,10,4.80
2023,01,05,14,11,4.80
2023,01,05,14,12,3.20
2023,01,05,14,13,4.80
2023,01,05,14,14,3.20
2023,01,05,14,15,3.20
2023,01,05,14,16,6.40
2023,01,05,14,17,6.40
2023,01,05,14,18,4.80
2023,01,05,14,19,3.20
2023,01,05,14,20,1.60
2023,01,05,14,21,3.20
2023,01,05,14,22,4.80
2023,01,05,14,23,6.40
2023,01,05,14,24,6.40
2023,01,05,14,25,11.30
2023,01,05,14,26,14.50
2023,01,05,14,27,20.90
2023,01,05,14,28,17.70
2023,01,05,14,29,24.20
2023,01,05,14,30,20.90
2023,01,05,14,31,22.50
2023,01,05,14,32,20.90
2023,01,05,14,33,22.50
2023,01,05,14,34,20.90
2023,01,05,14,35,20.90
2023,01,05,14,36,20.90
2023,01,05,14,37,24.20
2023,01,05,14,38,22.50
2023,01,05,14,39,24.20
2023,01,05,14,40,24.20
2023,01,05,14,41,25.70
2023,01,05,14,42,25.70
2023,01,05,14,43,22.50
2023,01,05,14,44,25.70
2023,01,05,14,45,25.70
2023,01,05,14,46,20.90
2023,01,05,14,47,32.20
2023,01,05,14,48,30.60
2023,01,05,14,49,27.40
2023,01,05,14,50,32.20
2023,01,05,14,51,24.20
2023,01,05,14,52,29.00
2023,01,05,14,53,33.80
2023,01,05,14,54,29.00
2023,01,05,14,55,24.20
2023,01,05,14,56,29.00
2023,01,05,14,57,24.20
2023,01,05,14,58,25.70
2023,01,05,14,59,32.20
2023,01,05,15,00,32.20
2023,01,05,15,01,43.50
2023,01,05,15,02,35.40
2023,01,05,15,03,27.40
2023,01,05,15,04,30.60
2023,01,05,15,05,30.60
2023,01,05,15,06,33.80
2023,01,05,15,07,29.00
2023,01,05,15,08,37.00
2023,01,05,15,09,32.20
2023,01,05,15,10,33.80
2023,01,05,15,11,38.60
2023,01,05,15,12,35.40
2023,01,05,15,13,35.40
2023,01,05,15,14,35.40
2023,01,05,15,15,35.40
2023,01,05,15,16,33.80
2023,01,05,15,17,37.00
2023,01,05,15,18,37.00
2023,01,05,15,19,37.00
2023,01,05,15,20,40.20
2023,01,05,15,21,40.20
2023,01,05,15,22,37.00
2023,01,05,15,23,43.50
2023,01,05,15,24,40.20
2023,01,05,15,25,40.20
2023,01,05,15,26,40.20
2023,01,05,15,27,37.00
2023,01,05,15,28,38.60
2023,01,05,15,29,53.10
2023,01,05,15,30,51.50
2023,01,05,15,31,41.80
2023,01,05,15,32,43.50
2023,01,05,15,33,37.00
2023,01,05,15,34,51.50
2023,01,05,15,35,53.10
2023,01,05,15,36,33.80
2023,01,05,15,37,40.20
2023,01,05,15,38,40.20
2023,01,05,15,39,38.60
2023,01,05,15,40,49.90
2023,01,05,15,41,41.80
2023,01,05,15,42,37.00
2023,01,05,15,43,49.90
2023,01,05,15,44,41.80
2023,01,05,15,45,35.40
2023,01,05,15,46,38.60
2023,01,05,15,47,48.30
2023,01,05,15,48,45.10
2023,01,05,15,49,43.50
2023,01,05,15,50,46.70
2023,01,05,15,51,46.70
2023,01,05,15,52,49.90
2023,01,05,15,53,61.20
2023,01,05,15,54,49.90
2023,01,05,15,55,48.30
2023,01,05,15,56,35.40
2023,01,05,15,57,48.30
2023,01,05,15,58,53.10
2023,01,05,15,59,33.80
2023,01,05,16,00,46.70
2023,01,05,16,01,43.50
2023,01,05,16,02,51.50
2023,01,05,16,03,62.70
2023,01,05,16,04,51.50
2023,01,05,16,05,41.80
2023,01,05,16,06,46.70
2023,01,05,16,07,57.90
2023,01,05,16,08,59.50
2023,01,05,16,09,48.30
2023,01,05,16,10,49.90
2023,01,05,16,11,62.70
2023,01,05,16,12,46.70
2023,01,05,16,13,57.90
2023,01,05,16,14,51.50
2023,01,05,16,15,48.30
2023,01,05,16,16,41.80
2023,01,05,16,17,40.20
2023,01,05,16,18,41.80
2023,01,05,16,19,48.30
2023,01,05,16,20,53.10
2023,01,05,16,21,46.70
2023,01,05,16,22,46.70
2023,01,05,16,23,53.10
2023,01,05,16,24,46.70
2023,01,05,16,25,54.70
2023,01,05,16,26,56.30
2023,01,05,16,27,46.70
2023,01,05,16,28,66.00
2023,01,05,16,29,54.70
2023,01,05,16,30,56.30
2023,01,05,16,31,56.30
2023,01,05,16,32,45.10
2023,01,05,16,33,61.20
2023,01,05,16,34,53.10
2023,01,05,16,35,57.90
2023,01,05,16,36,49.90
2023,01,05,16,37,61.20
2023,01,05,16,38,66.00
2023,01,05,16,39,53.10
2023,01,05,16,40,48.30
2023,01,05,16,41,48.30
2023,01,05,16,42,64.40
2023,01,05,16,43,59.50
2023,01,05,16,44,49.90
2023,01,05,16,45,56.30
2023,01,05,16,46,48.30
2023,01,05,16,47,56.30
2023,01,05,16,48,66.00
2023,01,05,16,49,56.30
2023,01,05,16,50,54.70
2023,01,05,16,51,61.20
2023,01,05,16,52,74.00
2023,01,05,16,53,57.90
2023,01,05,16,54,56.30
2023,01,05,16,55,69.20
2023,01,05,16,56,67.60
2023,01,05,16,57,62.70
2023,01,05,16,58,75.60
2023,01,05,16,59,67.60
2023,01,05,17,00,69.20
2023,01,05,17,01,57.90
2023,01,05,17,02,45.10
2023,01,05,17,03,56.30
2023,01,05,17,04,53.10
2023,01,05,17,05,48.30
2023,01,05,17,06,53.10
2023,01,05,17,07,54.70
2023,01,05,17,08,49.90
2023,01,05,17,09,51.50
2023,01,05,17,10,46.70
2023,01,05,17,11,51.50
2023,01,05,17,12,41.80
2023,01,05,17,13,45.10
2023,01,05,17,14,46.70
2023,01,05,17,15,54.70
2023,01,05,17,16,54.70
2023,01,05,17,17,48.30
2023,01,05,17,18,45.10
2023,01,05,17,19,38.60
2023,01,05,17,20,46.70
2023,01,05,17,21,59.50
2023,01,05,17,22,53.10
2023,01,05,17,23,37.00
2023,01,05,17,24,45.10
2023,01,05,17,25,41.80
2023,01,05,17,26,45.10
2023,01,05,17,27,40.20
2023,01,05,17,28,38.60
2023,01,05,17,29,41.80
2023,01,05,17,30,48.30
2023,01,05,17,31,45.10
2023,01,05,17,32,33.80
2023,01,05,17,33,35.40
2023,01,05,17,34,27.40
2023,01,05,17,35,30.60
2023,01,05,17,36,29.00
2023,01,05,17,37,29.00
2023,01,05,17,38,30.60
2023,01,05,17,39,41.80
2023,01,05,17,40,45.10
2023,01,05,17,41,40.20
2023,01,05,17,42,48.30
2023,01,05,17,43,32.20
2023,01,05,17,44,38.60
2023,01,05,17,45,51.50
2023,01,05,17,46,41.80
2023,01,05,17,47,35.40
2023,01,05,17,48,33.80
2023,01,05,17,49,37.00
2023,01,05,17,50,33.80
2023,01,05,17,51,38.60
2023,01,05,17,52,38.60
2023,01,05,17,53,38.60
2023,01,05,17,54,38.60
2023,01,05,17,55,45.10
2023,01,05,17,56,37.00
2023,01,05,17,57,41.80
2023,01,05,17,58,43.50
2023,01,05,17,59,35.40
2023,01,05,18,00,32.20
2023,01,05,18,01,38.60
2023,01,05,18,02,45.10
2023,01,05,18,03,46.70
2023,01,05,18,04,46.70
2023,01,05,18,05,41.80
2023,01,05,18,06,38.60
2023,01,05,18,07,43.50
2023,01,05,18,08,38.60
2023,01,05,18,09,53.10
2023,01,05,18,10,48.30
2023,01,05,18,11,40.20
2023,01,05,18,12,43.50
2023,01,05,18,13,38.60
2023,01,05,18,14,46.70
2023,01,05,18,15,43.50
2023,01,05,18,16,38.60
2023,01,05,18,17,38.60
2023,01,05,18,18,37.00